Fort Lewis, WA

10:07 AM PDT on April 26, 2017 (GMT -0700)
Gray Army Air Field

Weather History for KGRF - January, 2013

Change the Weather History Date:

Tuesday, January 15, 2013

  Actual Average Record
Temperature  
Mean Temperature 34 °F -  
Max Temperature 42 °F 44 °F 54 °F (2011)
Min Temperature 25 °F 34 °F 15 °F (1997)
Degree Days  
Heating Degree Days 32    
Moisture  
Dew Point 31 °F    
Average Humidity 90    
Maximum Humidity 100    
Minimum Humidity 66    
Precipitation  
Precipitation 0.03 in - - ()
Sea Level Pressure  
Sea Level Pressure 30.66 in    
Wind  
Wind Speed 4 mph (ESE)    
Max Wind Speed 10 mph    
Max Gust Speed -    
Visibility 10 miles    
Events      
Averages and records for this station are not official NWS values.
T = Trace of Precipitation, MM = Missing Value Source: NWS Daily Summary

Daily Weather History Graph

Daily Weather History Graph

Search for Another Location

Airport or City:

Trip Planner

Search our weather history database for the weather conditions in past years. The results will help you decide how hot, cold, wet, or windy it might be!

Date:

Astronomy

Jan. 15, 2013 Rise Set
Actual Time 7:51 AM PST 4:48 PM PST
Civil Twilight 7:17 AM PST 5:22 PM PST
Nautical Twilight 6:39 AM PST 6:00 PM PST
Astronomical Twilight 6:03 AM PST 6:37 PM PST
Moon 9:39 AM PST (1/15) 10:07 PM PST (1/15)
Length of Visible Light 10h 05m
Length of Day
8h 56m
Waxing Crescent, 20% of the Moon is Illuminated
Jan 15
Waxing Crescent
Jan 18
First Quarter
Jan 26
Full
Feb 3
Last Quarter
Feb 9
New

Hourly Weather History & Observations

Time (PST) Temp. Windchill Dew Point Humidity Pressure Visibility Wind Dir Wind Speed Gust Speed Precip Events Conditions
12:03 AM 32.0 °F 26.4 °F 30.2 °F 93% 30.56 in 10.0 mi SE 5.8 mph - N/A   Overcast
12:58 AM 30.6 °F 25.8 °F 30.0 °F 98% 30.58 in 10.0 mi SSE 4.6 mph - N/A   Overcast
1:58 AM 30.7 °F 27.3 °F 30.4 °F 99% 30.61 in 10.0 mi SSE 3.5 mph - N/A   Overcast
2:43 AM 30.2 °F 26.7 °F 30.2 °F 100% 30.60 in 10.0 mi SE 3.5 mph - N/A   Overcast
2:58 AM 30.0 °F - 29.7 °F 99% 30.63 in 10.0 mi SE 2.3 mph - N/A   Overcast
3:58 AM 30.6 °F 27.1 °F 29.8 °F 97% 30.63 in 10.0 mi SE 3.5 mph - N/A   Overcast
4:13 AM 32.0 °F - 30.2 °F 93% 30.61 in 10.0 mi East 1.2 mph - N/A   Overcast
4:43 AM 32.0 °F 27.5 °F 30.2 °F 93% 30.61 in 10.0 mi SSE 4.6 mph - N/A   Overcast
4:58 AM 30.7 °F 27.3 °F 30.2 °F 98% 30.63 in 10.0 mi SE 3.5 mph - N/A   Overcast
5:43 AM 32.0 °F - 32.0 °F 100% 30.61 in 10.0 mi SE 2.3 mph - N/A   Overcast
5:58 AM 31.3 °F 27.9 °F 30.6 °F 97% 30.64 in 10.0 mi SE 3.5 mph - N/A   Overcast
6:28 AM 32.0 °F - 32.0 °F 100% 30.63 in 10.0 mi SE 2.3 mph - N/A   Overcast
6:41 AM 32.0 °F 28.7 °F 32.0 °F 100% 30.63 in 10.0 mi SE 3.5 mph - N/A   Overcast
6:58 AM 31.3 °F 27.9 °F 30.6 °F 97% 30.66 in 10.0 mi SE 3.5 mph - N/A   Overcast
7:28 AM 32.0 °F - 32.0 °F 100% 30.65 in 10.0 mi SE 2.3 mph - N/A   Overcast
7:38 AM 32.0 °F - 32.0 °F 100% 30.65 in 10.0 mi Calm Calm - N/A   Overcast
7:48 AM 32.0 °F - 32.0 °F 100% 30.65 in 10.0 mi SSE 2.3 mph - N/A   Overcast
7:58 AM 31.3 °F 27.9 °F 30.2 °F 96% 30.68 in 10.0 mi SSE 3.5 mph - N/A   Overcast
8:58 AM 32.0 °F - 30.7 °F 95% 30.71 in 10.0 mi Calm Calm - N/A   Overcast
9:03 AM 32.0 °F - 32.0 °F 100% 30.68 in 10.0 mi East 1.2 mph - N/A   Overcast
9:58 AM 33.6 °F 30.6 °F 31.5 °F 92% 30.71 in 10.0 mi SE 3.5 mph - N/A   Overcast
10:30 AM 35.6 °F - 32.0 °F 87% 30.68 in 10.0 mi Calm Calm - N/A   Overcast
10:41 AM 35.6 °F - 32.0 °F 87% 30.68 in 10.0 mi Variable 1.2 mph - N/A   Overcast
10:58 AM 37.2 °F - 33.3 °F 86% 30.70 in 10.0 mi Calm Calm - N/A   Scattered Clouds
11:58 AM 40.5 °F 35.8 °F 34.2 °F 78% 30.70 in 10.0 mi NW 6.9 mph - N/A   Partly Cloudy
12:09 PM 41.0 °F 35.8 °F 33.8 °F 76% 30.67 in 10.0 mi NW 8.1 mph - N/A   Mostly Cloudy
12:19 PM 39.2 °F 35.0 °F 33.8 °F 81% 30.67 in 10.0 mi NW 5.8 mph - N/A   Scattered Clouds
12:58 PM 41.9 °F 37.5 °F 32.7 °F 70% 30.69 in 10.0 mi NW 6.9 mph - N/A   Clear
1:58 PM 42.6 °F 36.8 °F 32.7 °F 68% 30.68 in 10.0 mi NW 10.4 mph - N/A   Clear
2:55 PM 42.8 °F - 32.0 °F 66% 30.69 in 10.0 mi Calm Calm - N/A   Clear
3:58 PM 41.7 °F 38.0 °F 31.3 °F 66% 30.69 in 10.0 mi NNW 5.8 mph - N/A   Clear
4:58 PM 39.4 °F 35.2 °F 30.0 °F 69% 30.69 in 10.0 mi NNW 5.8 mph - N/A   Clear
5:58 PM 35.8 °F - 30.0 °F 80% 30.69 in 10.0 mi Calm Calm - N/A   Clear
6:58 PM 34.2 °F - 29.7 °F 84% 30.69 in 10.0 mi Calm Calm - N/A   Clear
7:58 PM 30.2 °F - 28.6 °F 94% 30.69 in 10.0 mi NNW 2.3 mph - N/A   Clear
8:58 PM 28.2 °F - 27.5 °F 97% 30.70 in 10.0 mi NNW 2.3 mph - N/A   Clear
9:58 PM 27.5 °F - 27.0 °F 98% 30.69 in 10.0 mi NNW 2.3 mph - N/A   Clear
10:58 PM 25.9 °F 20.3 °F 25.0 °F 96% 30.69 in 10.0 mi NNW 4.6 mph - N/A   Clear
11:58 PM 25.9 °F 21.7 °F 25.2 °F 97% 30.69 in 10.0 mi NNW 3.5 mph - N/A   Clear